Location: Newark
(43.5831°N, 21.3381°E)
Time: 01:24:58
(UTC+00:00)

ISS - Visible Passes

Search period start: 25 January 2021 00:00
Search period end: 04 February 2021 00:00
Orbit: 418 x 421 km, 51.6° (Epoch: 25 January)

Date Brightness Start Highest point End Pass type
(mag) Time Alt. Az. Time Alt. Az. Time Alt. Az.
25 Jan -2.1 16:59:57 10° WNW 17:02:47 24° NNW 17:04:02 20° NNE visible
26 Jan -2.3 16:12:15 10° W 16:15:16 29° NNW 16:18:17 10° NE visible
26 Jan -1.3 17:50:12 10° NW 17:51:35 17° NNW 17:51:35 17° NNW visible
27 Jan -1.9 17:02:38 10° NW 17:05:15 20° N 17:06:09 18° NNE visible
28 Jan -2.0 16:14:57 10° WNW 16:17:39 21° N 16:20:22 10° NE visible
28 Jan -1.4 17:52:23 10° NW 17:53:41 18° NNW 17:53:41 18° NNW visible
29 Jan -2.1 17:04:57 10° NW 17:07:40 22° N 17:08:16 21° NNE visible
30 Jan -2.0 16:17:26 10° NW 16:20:04 20° N 16:22:42 10° NE visible
30 Jan -1.7 17:54:18 10° NW 17:55:52 23° NNW 17:55:52 23° NNW visible
31 Jan -2.7 17:06:56 10° NW 17:09:59 30° NNE 17:10:32 28° NE visible
01 Feb -2.3 16:19:32 10° NW 16:22:25 25° NNE 16:25:16 10° ENE visible
01 Feb -2.3 17:56:11 10° WNW 17:58:16 35° NW 17:58:16 35° NW visible
02 Feb -3.6 17:08:46 10° NW 17:12:07 56° NNE 17:13:06 38° E visible
02 Feb -0.1 18:46:02 10° W 18:46:06 10° W 18:46:06 10° W visible
03 Feb -3.1 16:21:22 10° NW 16:24:35 39° NNE 16:27:47 10° E visible
03 Feb -2.2 17:58:15 10° WNW 18:01:04 34° SW 18:01:04 34° SW visible
